Location: *
(1.3500°S, 147.5000°W)
Time: 16:03:47
(UTC+00:00)

OAO 3 Rocket - Pass Details

Date: 07 April 2020
Orbit: 629 x 683 km, 35.0° (Epoch: 26 May)

Event Time Altitude Azimuth Distance (km) Brightness Sun altitude
Rises 04:58:47 0° 297° (WNW) 2,997 7.9 -16.7°
Reaches altitude 10° 05:01:14 10° 291° (WNW) 2,078 6.9 -17.3°
Maximum altitude 05:05:55 48° 217° (SW) 855 3.9 -18.5°
Enters shadow 05:08:41 22° 152° (SSE) 1,406 4.6 -19.2°
